[[{"header":{"parameterUnit":"m.s-1","parameterCategory":1,"la1":30.2992,"la2":30.254,"lo1":-89.0895,"lo2":-89.0443,"dy":0.0025,"dx":0.0025,"nx":19,"ny":19,"refTime":"2026-05-06T09:00:00:Z","depth":0,"parameterNumber":2,"parameterNumberName":"U-component_of_WINDS"},"data":[0,0,0,-0.8407,-0.8404,-0.8296,-0.8296,-0.8152,-0.8151,0,0,0,0,0,0,0,0,0,0,0,-0.8442,-0.8441,-0.8407,-0.8404,-0.8296,-0.8296,-0.8152,-0.8151,0,0,0,0,0,0,0,0,0,0,0,-0.8442,-0.8441,-0.844,-0.8404,-0.8296,-0.8296,-0.8153,-0.8235,0,0,0,0,0,0,0,0,0,0,-0.834,-0.8378,-0.8442,-0.844,-0.8403,-0.8297,-0.8296,-0.8239,-0.8229,-0.8201,0,-0.8182,0,-0.8165,-0.8142,-0.8141,0,0,0,-0.84,-0.8385,-0.8354,-0.844,-0.8402,-0.8297,-0.8344,-0.8234,-0.8223,-0.8189,-0.818,-0.8175,-0.8162,-0.8141,-0.814,-0.8001,-0.8,0,0,-0.8406,-0.8423,-0.8361,-0.8347,-0.8371,-0.8347,-0.8341,-0.8227,-0.8217,-0.818,-0.8171,-0.816,-0.814,-0.8139,-0.8001,-0.8001,0,0,0,-0.8426,-0.8427,-0.8398,-0.8353,-0.8334,-0.8344,-0.8336,-0.8222,-0.8211,-0.817,-0.8158,-0.8139,-0.8137,-0.8002,-0.8001,-0.7995,0,0,0,-0.8429,-0.8439,-0.8401,-0.841,-0.8337,-0.8278,-0.8333,-0.8219,-0.8206,-0.8159,-0.8139,-0.8136,-0.8002,-0.8001,-0.7997,-0.7989,0,0,0,-0.8447,-0.8441,-0.8427,-0.8412,-0.8367,-0.828,-0.8262,-0.8216,-0.8199,-0.8141,-0.8136,-0.8003,-0.8001,-0.7998,-0.7991,-0.7955,0,0,0,-0.8471,-0.8423,-0.8428,-0.8369,-0.8368,-0.8279,-0.8263,-0.8195,-0.8145,-0.8138,-0.8002,-0.8001,-0.7998,-0.7992,-0.7956,-0.7927,-0.7918,0,0,-0.842,-0.8418,-0.8382,-0.8382,-0.8299,-0.8294,-0.8206,-0.8143,-0.8119,-0.8039,-0.8036,-0.7996,-0.7991,-0.7955,-0.7862,-0.7854,0,0,0,-0.8371,-0.8345,-0.8319,-0.8275,-0.8227,-0.8183,-0.8132,-0.8107,-0.804,-0.8084,-0.7974,-0.797,-0.7949,-0.7934,-0.7927,-0.7905,-0.7996,-0.7996,-0.7996,-0.8322,-0.8297,-0.8234,-0.8196,-0.8152,-0.8098,-0.8058,-0.8014,-0.8,-0.7974,-0.795,-0.7897,-0.788,-0.7876,-0.7853,-0.7935,-0.7935,-0.7935,-0.7934,-0.8243,-0.82,-0.8184,-0.8117,-0.8088,-0.8029,-0.7973,-0.7964,-0.79,-0.7914,-0.7894,-0.7909,-0.7868,-0.7847,-0.7934,-0.7934,-0.7934,-0.7934,-0.7934,-0.8206,-0.8181,-0.8155,-0.8086,-0.8033,-0.7993,-0.7933,-0.7909,-0.7884,-0.7864,-0.7833,-0.7833,-0.7827,-0.7852,-0.7851,-0.7851,-0.7851,-0.7851,-0.7851,-0.8178,-0.8148,-0.8104,-0.8048,-0.8014,-0.7966,-0.7908,-0.7872,-0.7824,-0.781,-0.7809,-0.7794,-0.7871,-0.7889,-0.7848,-0.7848,-0.7849,-0.7849,-0.7849,-0.8103,-0.8116,-0.8048,-0.8014,-0.7943,-0.789,-0.786,-0.7786,-0.7752,-0.7722,-0.7711,-0.7773,-0.7767,-0.7772,-0.7786,-0.772,-0.772,-0.772,-0.772,-0.8071,-0.8067,-0.7989,-0.7936,-0.7881,-0.7846,-0.776,-0.7713,-0.7664,-0.7639,-0.7645,-0.7663,-0.7669,-0.7659,-0.7667,-0.7679,-0.7588,-0.7587,-0.7587,-0.8021,-0.801,-0.7947,-0.7906,-0.7847,-0.7795,-0.7713,-0.7646,-0.7593,-0.7581,-0.7618,-0.7624,-0.7652,-0.7664,-0.7653,-0.7665,-0.7688,0,0]},{"header":{"parameterUnit":"m.s-1","parameterCategory":1,"la1":30.2992,"la2":30.254,"lo1":-89.0895,"lo2":-89.0443,"dy":0.0025,"dx":0.0025,"nx":19,"ny":19,"refTime":"2026-05-06T09:00:00:Z","depth":0,"parameterNumber":3,"parameterNumberName":"V-component_of_WINDS"},"data":[0,0,0,-3.5085,-3.5086,-3.5149,-3.515,-3.5219,-3.522,0,0,0,0,0,0,0,0,0,0,0,-3.5063,-3.5064,-3.5085,-3.5086,-3.5149,-3.515,-3.5219,-3.522,0,0,0,0,0,0,0,0,0,0,0,-3.5063,-3.5064,-3.5064,-3.5087,-3.5149,-3.515,-3.5219,-3.5175,0,0,0,0,0,0,0,0,0,0,-3.5115,-3.5093,-3.5064,-3.5064,-3.5087,-3.5149,-3.515,-3.5173,-3.5178,-3.5187,0,-3.5198,0,-3.521,-3.5224,-3.5225,0,0,0,-3.5088,-3.5089,-3.5109,-3.5064,-3.5088,-3.5149,-3.5121,-3.5176,-3.5181,-3.5194,-3.5199,-3.5202,-3.5212,-3.5225,-3.5225,-3.5282,-3.5282,0,0,-3.5085,-3.5073,-3.5105,-3.5112,-3.5106,-3.5119,-3.5123,-3.5179,-3.5183,-3.52,-3.5204,-3.5213,-3.5225,-3.5226,-3.5282,-3.5282,0,0,0,-3.5073,-3.507,-3.5089,-3.5109,-3.5122,-3.5121,-3.5126,-3.5181,-3.5188,-3.5205,-3.5213,-3.5226,-3.5226,-3.5281,-3.5282,-3.5279,0,0,0,-3.5071,-3.5064,-3.5087,-3.508,-3.512,-3.5153,-3.5126,-3.5184,-3.5191,-3.5213,-3.5226,-3.5227,-3.5281,-3.5282,-3.5279,-3.528,0,0,0,-3.506,-3.5062,-3.5071,-3.508,-3.5106,-3.5152,-3.5163,-3.5186,-3.5196,-3.5225,-3.5227,-3.5281,-3.5282,-3.5279,-3.528,-3.5291,0,0,0,-3.5044,-3.5068,-3.507,-3.51,-3.5106,-3.5151,-3.5162,-3.5196,-3.5221,-3.5226,-3.5281,-3.5282,-3.5279,-3.528,-3.529,-3.5297,-3.53,0,0,-3.5068,-3.5071,-3.5089,-3.5093,-3.5134,-3.5142,-3.5183,-3.5216,-3.5228,-3.5262,-3.5264,-3.5279,-3.528,-3.529,-3.5317,-3.5318,0,0,0,-3.5092,-3.5105,-3.5118,-3.5142,-3.5168,-3.5189,-3.5217,-3.5229,-3.5258,-3.5244,-3.5287,-3.5287,-3.5294,-3.5298,-3.5299,-3.5305,-3.5283,-3.5283,-3.5283,-3.5108,-3.5123,-3.5153,-3.5175,-3.5197,-3.5224,-3.5242,-3.5262,-3.5271,-3.528,-3.5291,-3.5305,-3.5309,-3.531,-3.5316,-3.5296,-3.5296,-3.5296,-3.5296,-3.5143,-3.5162,-3.5172,-3.5205,-3.5219,-3.5246,-3.5271,-3.5276,-3.5301,-3.5299,-3.5306,-3.5302,-3.5312,-3.5317,-3.5296,-3.5296,-3.5296,-3.5296,-3.5296,-3.5155,-3.5166,-3.518,-3.5213,-3.5236,-3.5256,-3.5279,-3.5291,-3.5303,-3.5309,-3.532,-3.532,-3.5321,-3.5314,-3.5314,-3.5314,-3.5314,-3.5314,-3.5314,-3.5161,-3.5177,-3.5196,-3.5224,-3.5238,-3.5259,-3.5284,-3.5298,-3.5316,-3.5323,-3.5323,-3.533,-3.5311,-3.5305,-3.5315,-3.5314,-3.5314,-3.5314,-3.5314,-3.519,-3.5185,-3.5215,-3.5229,-3.5261,-3.5281,-3.5295,-3.5322,-3.5335,-3.5345,-3.535,-3.5334,-3.5337,-3.5336,-3.5332,-3.5348,-3.5348,-3.5348,-3.5348,-3.52,-3.5202,-3.5234,-3.5256,-3.5279,-3.5294,-3.5323,-3.5341,-3.5359,-3.5367,-3.5366,-3.5361,-3.536,-3.5364,-3.5362,-3.5358,-3.5381,-3.5381,-3.5381,-3.5217,-3.5222,-3.5246,-3.5265,-3.5289,-3.5309,-3.5336,-3.5358,-3.5377,-3.5382,-3.5373,-3.5372,-3.5364,-3.5361,-3.5366,-3.5364,-3.5356,0,0]}]]